Location: Zagreb
(45.8000°N, 16.0000°E)
Time: 10:38:56
(UTC+01:00)

Tiros 1 despin weight - Visible Passes

Search period start: 29 November 2023 00:00
Search period end: 09 December 2023 00:00
Orbit: 583 x 628 km, 48.2° (Epoch: 28 November)

Date Brightness Start Highest point End Pass type
(mag) Time Alt. Az. Time Alt. Az. Time Alt. Az.
30 Nov ? 19:06:02 10° SSW 19:06:11 11° SSW 19:06:11 11° SSW visible
01 Dec ? 19:17:40 10° SW 19:18:23 14° SW 19:18:23 14° SW visible
02 Dec ? 17:50:33 10° S 17:53:19 17° SE 17:53:41 16° SE visible
02 Dec ? 19:29:40 10° SW 19:30:30 15° SW 19:30:30 15° SW visible
03 Dec ? 18:01:39 10° SSW 18:05:20 27° SE 18:05:43 27° SE visible
03 Dec ? 19:41:53 10° WSW 19:42:31 14° WSW 19:42:31 14° WSW visible
04 Dec ? 18:13:18 10° SW 18:17:26 43° SSE 18:17:41 43° SE visible
04 Dec ? 19:54:14 10° W 19:54:28 11° W 19:54:28 11° W visible
05 Dec ? 16:46:00 10° S 16:48:56 18° SE 16:51:53 10° E visible
05 Dec ? 18:25:18 10° WSW 18:29:34 66° SSE 18:29:34 66° SSE visible
06 Dec ? 16:57:09 10° SSW 17:00:56 29° SE 17:04:37 10° E visible
06 Dec ? 18:37:31 10° WSW 18:41:24 70° WSW 18:41:24 70° WSW visible
07 Dec ? 17:08:51 10° SW 17:13:01 46° SSE 17:16:24 15° E visible
07 Dec ? 18:49:50 10° W 18:53:11 50° WNW 18:53:11 50° WNW visible
08 Dec ? 17:20:51 10° WSW 17:25:11 70° SSE 17:28:09 20° ENE visible
08 Dec ? 19:02:13 10° W 19:04:56 36° WNW 19:04:56 36° WNW visible
